Location: Bazugues
(43.4465°N, 0.3432°E)
Time: 06:36:48
(UTC+00:00)

NOSS 2-3 (E) - Pass Details

Date: 12 January 2026
Orbit: 492 x 1706 km, 63.3° (Epoch: 24 April)

Event Time Altitude Azimuth Distance (km) Brightness Sun altitude
Rises 17:52:13 0° 325° (NW) 3,077 7.4 -12.1°
Reaches altitude 10° 17:54:18 10° 327° (NNW) 2,284 6.6 -12.4°
Maximum altitude 17:59:33 72° 52° (NE) 971 4.3 -13.3°
Drops below altitude 10° 18:06:43 10° 137° (SE) 3,071 6.8 -14.6°
Sets 18:09:53 0° 139° (SE) 4,220 7.6 -15.1°
